Content
SEND FEEDBACK

Daily
Averages
Monthly
Summary
United States of America

YIGO, GUAM


Home > North America > United States > Guam
Elevation: 530 feet     Latitude: 13 32N     Longitude: 144 53E

WEATHER
 
SELECT A DAY
Number of Records: 214,775;   Date Range: 1/1/95 - 11/21/14
 
SHARE

PRINT THIS DATA

[ ← Previous Day ]
WEATHER ALMANAC - FEBRUARY 5, 2013
[ Next Day → ]
[ °C ]   °F
Weather ElementAverageHighLow
Temperature80.5 °F86 °F (12:54 pm)75 °F (3:54 am)
Dewpoint71.1 °F73 °F (4:54 am)69.1 °F (12:54 pm)
Humidity73.4 %88 % (4:54 am)57 % (12:54 pm)
Barometer29.94 in30.01 in (8:54 am)29.88 in (2:54 pm)
Wind Speed14.8 mph21.9 mph (11:54 am)
Wind Gust29.9 mph (2:54 pm)
Weather ElementAverage
Visibility10 mi
Wind DirectionENE (69.6 °)

Weather ElementTotal
Precipitation---
Cooling Degree Days15.5 (Base 65)
Growing Degree Days30.5 (Base 50)
Averaged from 25 records on February 5, 2013
WEATHER CONDITIONS BREAKOUT
WIND DIRECTION BREAKOUT
WEATHER BY HOUR - FEBRUARY 5, 2013
[ °C ]   °F
Local TimeTemperatureDewpointHumidityBarometerVisibilityWind DirectionWind SpeedGust SpeedPrecipitationEventsConditions
1:54 AM78.1 °F72.0 °F81 %29.98 in10.0 miENE (60°)9.2 mphScattered Clouds
2:54 AM75.9 °F72.0 °F87 %29.97 in10.0 miENE (70°)15.0 mph0.00 inScattered Clouds
3:54 AM75.0 °F71.1 °F87 %29.96 in10.0 miENE (60°)11.5 mphOvercast
4:54 AM77.0 °F73.0 °F88 %29.96 in10.0 miEast (80°)10.4 mph0.00 inMostly Cloudy
5:54 AM77.0 °F72.0 °F84 %29.97 in10.0 miENE (70°)10.4 mphScattered Clouds
6:54 AM78.1 °F73.0 °F84 %29.99 in10.0 miENE (70°)12.7 mph18.4 mphMostly Cloudy
7:54 AM79.0 °F72.0 °F79 %30.00 in10.0 miENE (70°)13.8 mphScattered Clouds
8:54 AM81.0 °F71.1 °F72 %30.01 in10.0 miENE (70°)18.4 mph24.2 mphPartly Cloudy
9:54 AM82.0 °F72.0 °F71 %29.99 in10.0 miENE (60°)17.3 mphPartly Cloudy
10:54 AM84.0 °F71.1 °F65 %29.97 in10.0 miEast (80°)19.6 mph28.8 mphPartly Cloudy
11:54 AM84.0 °F71.1 °F65 %29.94 in10.0 miENE (70°)21.9 mph26.5 mphPartly Cloudy
12:54 PM86.0 °F69.1 °F57 %29.92 in10.0 miENE (60°)19.6 mph28.8 mphScattered Clouds
1:54 PM86.0 °F70.0 °F59 %29.90 in10.0 miENE (70°)19.6 mph26.5 mphMostly Cloudy
2:54 PM84.9 °F69.1 °F59 %29.88 in10.0 miEast (80°)19.6 mph29.9 mphScattered Clouds
3:54 PM84.0 °F71.1 °F65 %29.88 in10.0 miEast (80°)17.3 mphPartly Cloudy
4:54 PM82.9 °F70.0 °F65 %29.88 in10.0 miENE (70°)15.0 mph23.0 mphScattered Clouds
5:05 PM82.4 °F71.6 °F70 %29.91 in10.0 miENE (70°)13.8 mphMostly Cloudy
5:25 PM80.6 °F69.8 °F70 %29.91 in10.0 miENE (70°)18.4 mph24.2 mphScattered Clouds
5:54 PM81.0 °F70.0 °F69 %29.90 in10.0 miENE (60°)17.3 mph24.2 mphPartly Cloudy
6:54 PM80.1 °F70.0 °F71 %29.91 in10.0 miENE (70°)12.7 mphClear
7:54 PM79.0 °F71.1 °F77 %29.92 in10.0 miENE (70°)10.4 mphPartly Cloudy
8:54 PM79.0 °F71.1 °F77 %29.94 in10.0 miENE (70°)13.8 mphScattered Clouds
9:54 PM79.0 °F70.0 °F74 %29.94 in10.0 miENE (70°)10.4 mph0.00 inScattered Clouds
10:54 PM78.1 °F72.0 °F81 %29.92 in10.0 miENE (60°)11.5 mph0.00 inMostly Cloudy
11:54 PM79.0 °F71.1 °F77 %29.91 in10.0 miEast (80°)11.5 mphScattered Clouds
Hourly data recorded from PGUM, located miles away from Yigo, Guam







STORIES FROM OUR PARTNERS